Location: Adaghas
(31.2259°N, 9.0496°W)
Time: 04:06:59
(UTC+00:00)

TIMED - Pass Details

Date: 18 September 2020
Orbit: 603 x 604 km, 74.1° (Epoch: 23 October)

Event Time Altitude Azimuth Distance (km) Brightness Sun altitude
Rises 19:03:09 0° 345° (NNW) 2,857 8.3 -6.3°
Reaches altitude 10° 19:05:23 10° 346° (NNW) 1,951 7.4 -6.8°
Maximum altitude 19:09:45 82° 73° (ENE) 613 4.5 -7.7°
Drops below altitude 10° 19:14:05 10° 162° (SSE) 1,939 6.9 -8.6°
Sets 19:16:19 0° 163° (SSE) 2,839 7.7 -9.1°
